SL-14 DEB, 45330

Orbit data source: Space-Track

SL-14 DEB, 45330 is space debris in LEO originally from a launch on Thu, 15 Aug 1991 UTC launched from the Plesetsk Missile And Space Complex (PKMTR). Debris objects in space refer to the collection of defunct objects orbiting the Earth. Examples of debris include non-operational satellites, rocket bodies, and fragments generated from explosions, collisions, or faulty payload assembly.

Loading next visibility...
Identifier
45330, 1991-056BU
Orbit
LEO
Country
Flag of CISCIS
Related business
Manufacturer
Unknown
Mission
Spacecraft
Bus & Motor
Unknown
Mass
Unknown
Launch date (UTC)
1991-08-15 (34 years ago)
Launch vehicle
Unknown
Launch site
Plesetsk Missile And Space Complex (PKMTR)
Object type
Payload
Rocket body
Debris
Shape & HBR
Unknown shape, 0.1 m
Radar Cross Section
Small (<0.1 m²)

Expand to show TLE details & history
Last TLE update: 1 day ago

TLE from 1 day ago
0 SL-14 DEB
1 45330U 91056BU  25287.39527037  .00001487  00000-0  27092-2 0  9998
2 45330  82.5594 266.1549 0077419 137.6644 223.0501 13.38866602276160
Epoch: 2025-10-14T09:29Z
TLE epoch observation values (Epoch: 2025-10-14T09:29:11.359Z)
Latitude
-0.00009°
Longitude
100.67325°
Altitude
1,158.942 km
Speed
7.253 km/s
True Right ascension
17h 44m 37s
True Declination
0° 00' 00"
Sunlit
Object was in daylight at epoch
Visualization orbit readout
Latitude
Unknown
Longitude
Unknown
Altitude
Unknown
Speed
Unknown
Apparent Right ascension
Unknown
Apparent Declination
Unknown
Sunlit
N/A
Visualization observer readout
Local Sidereal Time
05:49:05
Azimuth
Unknown
Elevation
Unknown
Doppler factor
Unknown
Orbital elements
Apogee altitude
1,168.696 km
Perigee altitude
1,052.74 km
Semi-major axis
7,488.855 km
Eccentricity
0.00774
Inclination
82.5594°
RAAN
266.1549°
Arg. of periapsis
137.6644°
True anomaly
222.44876°
Mean anomaly
223.0501°
Eccentric anomaly
222.749°
Mean motion
3.34904 °/min
Orbital period
107.49 mins
BSTAR
0.0027092
Loading maneuver chart data...
Computing Atmospheric mass density...
Loading historical data...
Loading historical data...
Loading historical data...
Loading historical data...
Loading historical data...
Loading historical data...
Loading historical data...

Documentation

Showing up to 5 results
|